www.pogodaiklimat.ru

Погода и климат >> Архив погоды >> Индонезия >> Толи-Толи


ПОГОДА в Толи-Толи

  • Прогноз погоды в Толи-Толи
  • Монитор погоды в Толи-Толи

АРХИВ ПОГОДЫ в Толи-Толи

Время (UTC), дата Ветер
(напр.,м/с)
 
Видим.   Явления Облачность Т
(С)
Тd
(С)
f
(%)
Тe
(С)
Тes
(С)
Комфортность P
(гПа)
Po
(гПа)
Тmin
(С)
Tmax
(С)
R
(мм)
R24
(мм)
S
(см)
03 18.06 СЗ 3 13 км 5/3 600 м
[Sc As op Ci fib]
+30.6 +25.2 73 +44 +54 опасность
перегрева
1010.2 1010.0
06 18.06 СВ 1 8000 м слаб. ливневой дождь, в посл. час гроза 10/5 540 м
[Cb cap As op Ci fib]
+28.4 +26.4 89 +43 +48 опасность
перегрева
1009.1 1008.8 2
09 18.06 ЮЗ 1 13 км {дождь} 6/3 600 м
[Sc As op Ci fib]
+30.8 +24.8 70 +44 +44 опасность
перегрева
1007.5 1007.3 0.5
12 18.06 ЮВ 1 8000 м 5/4 600 м
[Sc As op Ci fib]
+27.3 +25.4 89 +40 +40 очень
душно
1009.9 1009.7 +33.6 0.5
15 18.06 В 2 8000 м 5/4 600 м
[Sc As op Ci fib]
+25.8 +24.0 90 +36 +36 очень
душно
1010.2 1009.9
18 18.06 В 1 8000 м 5/3 600 м
[Sc As op Ci fib]
+24.8 +23.7 94 +34 +34 очень
душно
1008.7 1008.4
21 18.06 В 1 8000 м 5/3 600 м
[Sc As op Ci fib]
+24.4 +22.8 91 +32 +32 очень
душно
1009.2 1009.0
00 19.06 В 1 13 км 3/3 600 м
[Sc As trans Ci fib]
+29.2 +23.4 71 +40 +44 очень
душно
1010.4 1010.1 +24.2 3
03 19.06 СЗ 2 13 км 5/3 600 м
[Cu med, cong As op Ci fib]
+31.2 +25.2 70 +45 +55 опасность
перегрева
1009.6 1009.4
06 19.06 З 3 13 км 4/4 600 м
[Cu med, cong As trans Ci fib]
+31.8 +23.7 62 +43 +51 опасность
перегрева
1007.4 1007.1
09 19.06 СЗ 2 13 км 6/4 600 м
[Cu med, cong As op Ci fib]
+31.2 +25.2 70 +45 +45 опасность
перегрева
1007.4 1007.2
12 19.06 СВ 1 7000 м 9/4 600 м
[Cu med, cong As op Ci fib]
+28.6 +26.3 87 +43 +43 опасность
перегрева
1008.9 1008.7 +32.0
15 19.06 В 1 8000 м 8/3 600 м
[Sc As op Ci fib]
+25.7 +24.6 94 +36 +36 очень
душно
1009.4 1009.2
18 19.06 В 1 8000 м 8/4 600 м
[Sc As op Ci fib]
+25.0 +23.5 91 +34 +34 очень
душно
1008.0 1007.7
21 19.06 В 1 8000 м 8/4 600 м
[Sc As op Ci fib]
+24.2 +23.4 95 +32 +32 очень
душно
1008.4 1008.1
00 20.06 СЗ 2 14 км 4/4 600 м
[Cu med, cong As op Ci fib]
+29.6 +25.0 76 +42 +46 опасность
перегрева
1010.1 1009.9 +24.0
03 20.06 СЗ 2 13 км 6/4 600 м
[Cu med, cong As op Ci fib]
+31.4 +25.2 70 +45 +54 опасность
перегрева
1009.6 1009.3
06 20.06 СЗ 3 13 км 4/4 600 м
[Cu med, cong As op Ci fib]
+32.2 +23.6 61 +44 +50 опасность
перегрева
1007.4 1007.2
09 20.06 З 2 12 км 8/4 600 м
[Cu med, cong As op Ci fib]
+32.1 +24.2 63 +44 +45 опасность
перегрева
1007.3 1007.1
12 20.06 В 1 9000 м 6/4 600 м
[Sc diur, vesp As op Ci fib]
+28.1 +24.6 81 +40 +40 очень
душно
1008.7 1008.4 +32.1
15 20.06 В 1 9000 м 6/3 600 м
[Sc diur, vesp As op Ci fib]
+27.2 +24.1 83 +38 +38 очень
душно
1009.3 1009.1
18 20.06 В 1 8000 м 6/3 600 м
[Sc As op Ci fib]
+26.8 +24.4 87 +38 +38 очень
душно
1009.0 1008.8
21 20.06 В 1 8000 м 6/3 600 м
[Sc As op Ci fib]
+25.4 +23.8 91 +35 +35 очень
душно
1008.6 1008.4
00 21.06 В 2 14 км 6/4 600 м
[Cu med, cong As trans Ci fib]
+29.2 +24.6 76 +41 +44 опасность
перегрева
1009.8 1009.6 +25.4
03 21.06 З 2 14 км 4/3 600 м
[Cu med, cong As trans Ci fib]
+31.0 +24.1 67 +43 +55 опасность
перегрева
1008.2 1008.0
06 21.06 С 2 11 км осадки на расстоянии 5/4 600 м
[Cu med, cong Ac cuf Ci fib]
+32.6 +23.7 60 +44 +52 опасность
перегрева
1006.1 1005.9
09 21.06 З 2 13 км 5/4 600 м
[Cu med, cong Ac cuf Ci fib]
+30.8 +24.5 69 +43 +44 опасность
перегрева
1006.8 1006.5
12 21.06 В 2 8000 м 10/5 600 м
[Sc As op Ci fib]
+26.8 +25.0 90 +39 +39 очень
душно
1008.5 1008.2 +33.2
15 21.06 В 2 8000 м в посл. час дождь 10/5 600 м
[Sc As op Ci fib]
+26.0 +24.2 90 +36 +36 очень
душно
1009.2 1009.0 0.0
18 21.06 В 2 10 км {дождь} 4/3 600 м
[Sc diur, vesp As trans Ci fib]
+25.4 +24.0 92 +35 +35 очень
душно
1008.0 1007.8 3
21 21.06 В 2 10 км 8/3 600 м
[Sc diur, vesp As op Ci fib]
+24.7 +23.3 92 +33 +33 очень
душно
1007.6 1007.4
00 22.06 штиль 0 12 км 6/1 600 м
[Sc diur, vesp Ac As Ci fib]
+27.3 +24.4 84 +38 +43 очень
душно
1008.7 1008.5 +24.2 3
03 22.06 СЗ 1 13 км 1/1 600 м
[Cu hum Ac trans Ci fib]
+30.9 +24.0 67 +43 +63 опасность
перегрева
1007.3 1007.1
06 22.06 СЗ 3 13 км 4/4 600 м
[Sc As trans Ci fib]
+32.1 +24.2 63 +44 +52 опасность
перегрева
1005.3 1005.0
09 22.06 З 2 13 км 6/4 600 м
[Sc As op Ci fib]
+29.6 +24.7 75 +42 +43 опасность
перегрева
1006.9 1006.1
12 22.06 СВ 4 8000 м 10/5 600 м
[Sc As op Ci fib]
+26.8 +24.7 88 +38 +38 очень
душно
1008.2 1008.0 +33.8
15 22.06 В 2 8000 м 10/4 600 м
[Sc As op Ci fib]
+26.1 +24.1 89 +36 +36 очень
душно
1009.0 1008.7
21 22.06 В 2 8000 м 6/3 600 м
[Sc diur, vesp As op Ci fib]
+25.0 +22.9 88 +33 +33 очень
душно
1007.9 1007.7
00 23.06 В 1 13 км 4/1 600 м
[Sc diur, vesp Ac trans Ci fib]
+29.3 +24.5 75 +41 +46 опасность
перегрева
1009.2 1009.0 +24.7
03 23.06 СЗ 1 13 км 1/1 600 м
[Sc diur, vesp As trans Ci fib]
+31.3 +24.7 68 +44 +63 опасность
перегрева
1008.9 1008.7
06 23.06 СЗ 2 13 км 4/3 600 м
[Cu med, cong As trans Ci fib]
+32.2 +24.8 65 +45 +55 опасность
перегрева
1007.1 1006.9
09 23.06 З 2 8000 м 4/3 600 м
[Sc As trans Ci fib]
+31.0 +24.7 69 +44 +45 опасность
перегрева
1007.2 1007.0
12 23.06 В 1 8000 м 5/3 600 м
[Sc As op Ci fib]
+27.2 +25.3 89 +39 +39 очень
душно
1009.1 1008.8 +32.4
15 23.06 В 2 8000 м 6/3 600 м
[Sc As op Ci fib]
+26.4 +24.6 90 +37 +37 очень
душно
1009.9 1009.6
18 23.06 В 2 8000 м 10/5 600 м
[Sc As op Ci fib]
+25.2 +23.1 88 +34 +34 очень
душно
1010.8 1010.6
21 23.06 В 2 8000 м 10/5 600 м
[Sc As op Ci fib]
+24.8 +23.5 92 +33 +33 очень
душно
1010.6 1010.3
00 24.06 СВ 1 13 км 1/1 600 м
[Sc diur, vesp As trans Ci fib]
+29.8 +24.0 71 +41 +46 опасность
перегрева
1011.3 1011.0 +24.0
03 24.06 СЗ 1 13 км 3/1 600 м
[Sc diur, vesp As op Ci fib]
+31.3 +25.2 70 +45 +62 опасность
перегрева
1010.8 1010.6
06 24.06 СЗ 2 13 км 6/4 600 м
[Cu med, cong As op Ci fib]
+31.8 +25.6 70 +47 +54 опасность
перегрева
1009.3 1009.1
09 24.06 В 1 10 км слаб. дождь 10/5 570 м
[Cu med, cong As op Ci fib]
+29.6 +25.6 79 +44 +44 опасность
перегрева
1009.6 1009.3 0.0
12 24.06 В 1 8000 м в посл. час дождь 8/4 600 м
[Sc As op Ci fib]
+25.4 +24.2 93 +35 +35 очень
душно
1011.6 1011.4 +32.6 0.0
15 24.06 штиль 0 8000 м 6/3 600 м
[Sc As op Ci fib]
+24.6 +22.7 89 +32 +32 очень
душно
1011.6 1011.4
18 24.06 В 2 8000 м 6/3 600 м
[Sc As op Ci fib]
+23.8 +21.9 89 +31 +31 очень
душно
1010.3 1010.0
21 24.06 ЮВ 1 8000 м 6/3 600 м
[Sc As op Ci fib]
+23.2 +22.1 94 +32 +32 очень
душно
1010.4 1010.1
00 25.06 В 1 13 км 8/4 600 м
[Sc As op Ci fib]
+27.0 +22.5 76 +35 +38 очень
душно
1012.0 1011.7 +23.0 0.0

 

Местоположение метеостанции Толи-Толи (Индонезия): широта 1.02 долгота 120.80 высота над уровнем моря 2 м.

В архиве по умолчанию представлена погода в Толи-Толи за последнюю неделю. Архивные данные за месяц целиком и за предыдущие месяцы, начиная с января 2011 года, Вы можете получить, выбрав интересующий диапазон дат из раскрывающегося списка и нажав кнопку "Ввод!".


*Определитесь, кто Вы:
робот инопланетянин человек

Внимание! Время в таблицах - всемирное. Для получения местного времени необходимо прибавить поправку, которая равна 8 ч.

Смотрите также архив погоды в соседних городах и на ближайших метеорологических станциях:

Погода в Палу (Индонезия) (223 км)
Погода в Горонтало (Индонезия) (257 км)
Погода в Посо (Индонезия) (267 км)
Погода в Лувуке (Индонезия) (307 км)
Погода в Танджунгредепе (Индонезия) (392 км)
Погода в Масамбе (Индонезия) (400 км)
Погода в Танджунгселоре (Индонезия) (436 км)
Погода в Маджене (Индонезия) (440 км)
Погода в Таракане (Индонезия) (442 км)
Погода в Самаринде (Индонезия) (445 км)

Пояснения к столбцам:

Ветер - указаны скорость ветра в м/с - средняя за 10 мин, порывы в срок и между сроками (в фигурных скобках) и направление, откуда дует ветер: С - северный, СВ - северо-восточный, В - восточный, ЮВ - юго-восточный, Ю - южный, ЮЗ - юго-западный, З - западный, СЗ - северо-западный.
Видимость - горизонтальная дальность видимости в метрах или километрах. При видимости от 1 до 10 км при отсутствии осадков обычно наблюдается дымка, при ухудшении видимости до 1 км и менее - туман. В сухую погоду видимость может ухудшаться дымом, пылью или мглою.
Явления - указаны атмосферные явления, наблюдавшиеся в срок или в последний час перед сроком; фигурными скобками обозначены явления, наблюдавшиеся между сроками (за 1-3 часа до срока); квадратными скобками обозначены град или гололедные отложения с указанием их диаметра в мм.
Облачность - указаны через наклонную черту общая и нижняя облачность в баллах и высота нижней границы облаков в метрах; квадратными скобками обозначены формы облаков: Ci - перистые, Cs - перисто-слоистые, Cc - перисто-кучевые, Ac - высококучевые, As - высокослоистые, Sc - слоисто-кучевые, Ns - слоисто-дождевые, Cu - кучевые, Cb - кучево-дождевые. Подробнее классификацию облаков см. в Атласе облаков (PDF).
T - Температура воздуха - температура, измеренная на высоте 2 м над землей.
Td - Температура точки росы - температура, при понижении до которой содержащийся в воздухе водяной пар достигнет насыщения.
f - Относительная влажность воздуха - влажноcть воздуха, измеренная на высоте 2 м над землей.
Te - Эффективная температура - температура, которую ощущает одетый по сезону человек в тени. Характеристика душности погоды. При расчете учитывается влияние влажности воздуха и скорости ветра на теплоощущения человека.
Tes - Эффективная температура на солнце - температура, которую ощущает человек, с поправкой на солнечный нагрев. Характеристика знойности погоды. Зависит от высоты солнца над горизонтом, облачности и скорости ветра. Ночью, в пасмурную погоду, а также при ветре 12 м/с и более поправка равна нулю.
P - Атмосферное давление - приведенное к уровню моря атмосферное давление.
Po - Атмосферное давление - измеренное на уровне метеостанции атмосферное давление.
Tmin - Минимальная температура - минимум температуры воздуха на высоте 2 м над землей.
Tmax - Максимальная температура - максимум температуры воздуха на высоте 2 м над землей.
R - Количество осадков - Количество выпавших осадков за период времени, мм. При наведении курсора мыши на число - период времени, за который выпало указанное количество осадков.
R24 - Количество осадков - Количество выпавших осадков за 24 часа, мм.
S - Снежный покров - Высота снежного покрова, см. При наведении курсора мыши на число - состояние снежного покрова и степень покрытия местности в баллах.